Showing default

EUTE 36B (EUTE W7), 36101

Orbit data source: Space-Track

EUTE 36B (EUTE W7), 36101 is a payload satellite owned by EutelsatSA (FR) in GEO that was launched on Tue, 24 Nov 2009 UTC via a PROTON-M/BRIZ-M launch vehicle from the Tyuratam Missile And Space Complex (TTMTR). Payloads include a variety of satellites, spacecraft, and rockets equipped with specific instruments for various scientific and technological missions. These include communications satellites like Starlink; space stations such as the ISS; scientific satellites like the Hubble; Earth observation satellites from companies like Planet Labs, Umbra, and HawkEye 360; GPS; miniature CubeSats for education and research; and military/defense satellites.

Not visible in the next 10 days
EUTE 36B (EUTE W7) details
Identifier
36101, 2009-065A
Orbit
GEO
Last TLE update1 day ago
Origin
Flag of FREutelsatSA (FR / EUTE)
ManufacturerThales Alenia
MissionOperational Commercial Communications
Bus & MotorSPACEBUS 4000C4, S400
Mass5,627 kg wet, ~2,800 kg dry
Launch date (UTC)
2009-11-24 (15 years ago)
Launch vehicle
PROTON-M/BRIZ-M
Launch site
Tyuratam Missile And Space Complex (TTMTR)
Object type
Payload
Rocket body
Debris
Shape & HBRBox + 2 Pan + 1 Dish, 34 m
Radar Cross Section44.769 m², Large (>1 m²)

Expand to show TLE details & history

TLE from 1 day ago
0 EUTE 36B (EUTE W7)
1 36101U 09065A   24347.84632605  .00000126  00000-0  00000-0 0  9994
2 36101   0.0638   4.7051 0005693 269.6995 162.7938  1.00270410 55186
Epoch: 2024-12-12T20:18Z
Definitive object data (Epoch: 2024-12-12T20:18:42.57Z)
Latitude0.08375°
Longitude50.50665°
Altitude35,809.503 km
Speed3.073 km/s
True Right ascension05h 08m 49s
True Declination0° 05' 01"
Sunlit
Object was in daylight at TLE epoch
Visualization TLE readout
Latitude0.08727°
Longitude68.41353°
Altitude35,810.45 km
Speed3.073 km/s
Apparent Right ascension06h 30m 22s
Apparent Declination-4° 54' 16"
Sunlit
Object is in daylight
Visualization observer readout
Local Sidereal Time19:58:01
Azimuth35.176° NE
Elevation-49.803°
Doppler factor1
Orbital elements
Apogee altitude35,812.056 km
Perigee altitude35,764.046 km
Semi-major axis42,166.188 km
Eccentricity0.0005693
Inclination0.0638°
RAAN4.7051°
Arg. of periapsis269.6995°
True anomaly162.81308°
Mean anomaly162.7938°
Eccentric anomaly162.80344°
Mean motion0.25067 °/min
BSTARUnknown
Orbital period1436.17 mins
Loading historical data...
36101 neighbors
Authenticating...
Loading maneuver chart data...
Loading historical data...
Loading historical data...
Loading historical data...
Loading historical data...
Loading historical data...
Loading historical data...
Loading historical data...
Other satellites on launch #65 in the year 2009 (2009-11-24 UTC)

EUTE 36B (EUTE W7) Visibility forecast

Observer location: undefined°, undefined

EUTE 36B (EUTE W7) is not visible in the next 10 days
Span
Click to sort rows by Start time (UTC) header in descending order
Start Az.
Max El. time (UTC)
Max El. Az.
Max El.
End time (UTC)
End Az.
|